Theta_e
315 316 315 314 309 307 307 309 313 314 315 314 312 312 315 316 317 317 316 318 320 320 320 314 319 318 315 314 315 318 326 331 328 334 330 325 330 327 326 330 331 331 333 333 324
315 317 316 313 309 307 307 308 313 314 313 314 312 311 313 316 315 316 313 318 320 321 319 316 318 318 313 314 315 318 324 328 327 329 330 325 329 329 332 335 337 335 328 324 322
314 315 315 311 308 307 306 307 311 312 312 311 311 311 312 315 316 314 311 316 317 318 317 317 319 318 314 313 315 318 322 324 325 330 329 327 328 325 330 333 335 336 327 322 321
312 313 314 307 306 306 306 307 309 311 311 311 311 313 314 315 315 311 312 317 321 319 316 319 318 316 314 314 312 317 317 320 324 326 328 326 322 327 326 329 329 333 326 323 321
312 311 308 306 306 306 306 307 309 310 310 311 311 312 315 312 312 313 313 318 319 316 318 319 319 315 315 313 313 314 314 318 322 326 329 326 322 325 323 331 332 332 327 325 323
311 306 305 305 305 305 306 307 309 310 310 311 312 313 314 312 312 311 312 318 319 318 318 318 318 317 316 315 313 312 313 314 317 323 329 328 323 322 325 333 333 331 329 325 324
310 305 305 305 305 305 306 306 309 309 310 310 311 313 313 311 311 310 311 316 318 318 317 316 315 315 315 316 312 313 314 314 315 319 327 326 329 322 328 334 334 332 330 327 324
304 304 304 305 305 305 305 306 307 309 310 311 312 312 310 310 310 310 309 313 318 318 318 318 316 314 316 313 311 314 312 314 313 320 322 327 332 324 333 335 335 333 332 329 326
304 304 304 304 304 305 306 306 308 310 310 310 312 312 309 310 310 310 310 314 314 316 316 316 313 313 311 311 312 311 313 315 317 318 320 327 329 328 330 335 335 334 332 331 329
305 305 305 303 304 305 308 311 312 313 311 312 312 309 309 309 310 310 310 311 312 313 314 312 310 310 309 309 315 314 314 313 316 316 318 323 323 319 324 331 333 331 331 329 329
306 304 304 303 305 307 310 310 306 305 307 311 310 310 309 310 310 311 310 310 310 312 314 312 311 309 311 312 311 311 310 310 311 313 318 319 323 321 321 322 324 324 327 328 328
305 304 304 305 307 309 310 308 309 309 308 308 309 309 310 310 311 310 310 310 311 312 312 311 314 313 312 313 313 313 311 311 310 309 316 317 318 318 314 322 323 322 324 326 327
305 304 304 306 309 310 309 309 310 310 308 309 310 310 310 310 311 310 309 309 311 311 313 315 314 313 313 313 311 311 311 312 311 311 314 315 316 317 316 312 313 317 320 324 326
305 305 306 308 309 311 311 308 308 309 304 306 309 310 310 310 310 310 310 310 311 313 312 312 312 312 312 313 310 312 310 311 311 313 316 313 317 310 313 314 310 312 318 321 323
306 305 307 307 308 309 308 306 307 306 303 306 308 309 309 310 310 309 309 309 312 312 311 311 312 312 313 313 311 310 310 310 311 310 309 309 310 310 309 314 314 311 309 317 320
306 306 307 308 310 309 306 307 309 305 302 307 309 309 309 309 310 310 310 309 309 310 309 310 310 311 312 311 311 309 310 308 308 309 311 309 310 309 307 311 313 312 312 309 316
305 307 307 309 308 306 307 307 306 306 306 308 309 309 309 309 310 311 311 310 311 310 309 308 311 310 310 312 310 309 308 309 310 309 313 308 307 310 308 310 311 310 309 308 314
304 307 309 308 307 307 309 302 305 308 310 309 309 309 310 309 309 311 310 309 308 309 307 309 308 311 310 311 312 310 309 309 310 311 308 307 311 312 309 310 308 307 305 306 313
305 310 310 309 307 308 301 304 306 307 309 309 309 308 307 307 308 308 309 309 307 309 310 308 308 310 310 309 309 310 311 308 307 306 307 306 305 304 308 310 309 309 310 311 312
307 310 311 307 307 308 303 308 306 308 308 308 311 309 309 307 305 305 307 307 308 305 304 307 308 308 310 309 308 308 306 309 306 312 312 308 306 309 306 308 310 310 310 310 310
312 308 311 306 306 301 304 303 306 308 306 308 309 307 308 308 305 305 307 307 306 307 305 305 305 306 308 309 308 307 308 305 305 306 311 307 307 304 306 307 309 309 308 309 309
309 304 309 306 307 300 304 304 306 305 305 305 307 306 308 306 305 306 307 308 306 306 306 304 303 306 306 306 306 306 306 304 307 307 303 302 306 304 305 304 306 307 307 307 306
304 305 308 306 305 302 305 306 305 304 304 304 306 306 305 304 305 304 306 307 307 307 307 304 303 304 305 306 305 306 306 305 303 303 305 306 306 303 304 307 307 306 305 305 303
302 305 305 303 300 305 308 306 307 303 303 303 303 303 303 303 302 304 304 305 306 306 306 304 302 304 305 304 303 306 304 305 304 304 305 304 304 303 303 308 307 306 304 302 300
301 302 304 301 309 307 307 306 308 308 303 302 303 302 302 305 304 303 303 303 306 307 304 303 305 302 302 301 301 302 302 302 302 305 307 308 303 303 301 299 305 304 302 301 300
301 305 300 302 304 308 307 306 308 307 305 305 303 305 301 302 303 305 305 306 306 304 304 301 304 302 304 302 300 301 300 299 300 302 302 303 304 301 301 301 303 304 302 301 299
304 303 300 299 304 305 304 305 306 307 307 304 303 304 305 303 301 301 301 302 303 302 302 302 302 302 305 303 304 307 305 302 301 300 302 303 303 303 302 301 302 303 302 301 299
Wind_Speed
9 10 10 11 12 14 17 18 19 18 16 15 12 12 10 9 6 5 4 3 4 8 11 12 4 7 1 2 2 1 2 5 8 8 4 2 3 1 4 7 1 2 5 10 33
9 10 10 10 12 14 16 18 18 17 15 14 12 11 10 9 6 4 7 8 7 8 9 6 4 9 1 2 2 2 3 7 4 5 5 1 1 6 5 5 2 4 11 29 33
8 8 9 9 10 13 15 17 16 15 14 14 12 11 9 7 2 3 13 11 10 7 6 5 5 1 1 1 2 2 4 3 1 2 3 1 1 2 8 3 7 11 17 20 28
7 7 8 8 9 11 14 15 15 12 13 14 11 13 8 4 2 6 14 13 10 7 2 2 3 2 0 2 2 1 6 4 3 2 3 2 3 1 3 3 4 17 23 20 20
6 5 7 8 8 10 11 13 13 11 12 14 12 14 4 3 2 11 14 11 7 3 3 3 3 3 2 3 2 2 3 3 6 1 4 4 3 4 2 4 10 15 17 17 17
6 4 6 7 8 9 9 10 10 11 11 12 14 11 3 4 10 13 11 9 5 3 3 2 1 2 3 2 1 3 3 6 6 4 1 5 3 4 2 7 10 16 17 14 16
5 4 6 7 7 9 9 8 9 9 9 11 14 10 2 3 10 11 9 8 5 3 3 1 3 2 1 3 3 3 2 3 2 2 2 3 6 3 5 6 12 12 12 11 9
4 4 6 7 7 8 10 9 8 9 8 10 11 5 4 7 10 10 11 6 3 5 4 6 6 2 1 4 4 2 4 2 4 2 1 3 18 4 7 11 10 9 10 12 9
6 6 7 7 7 8 10 13 11 9 9 8 5 4 5 10 6 10 7 5 8 5 5 7 1 1 4 3 4 6 3 2 3 6 2 2 4 2 7 9 7 8 9 10 10
7 8 6 4 6 8 10 11 6 6 3 2 2 3 5 5 8 9 6 7 2 7 4 4 4 3 3 4 3 2 2 2 2 4 0 2 6 3 5 3 8 7 6 7 8
9 7 4 2 5 8 12 2 6 4 5 1 5 3 5 11 5 6 4 7 3 4 3 4 5 1 4 1 1 1 0 3 3 3 4 6 7 8 7 5 5 8 8 8 10
8 6 4 4 6 7 7 6 3 1 5 3 5 5 7 5 3 5 7 4 4 3 5 5 2 2 4 3 3 2 1 3 5 3 4 1 10 5 6 8 11 9 9 10 6
6 5 4 3 3 7 11 5 2 1 0 6 4 3 5 2 4 4 5 2 3 5 2 2 4 5 2 1 2 1 3 3 4 4 0 4 5 6 5 3 5 9 8 8 12
5 4 3 3 2 3 3 3 2 1 4 6 4 3 2 1 4 3 3 1 4 4 6 2 4 4 3 2 1 1 1 2 3 3 4 2 4 6 6 7 7 12 10 11 12
5 4 4 5 2 2 1 2 1 2 5 6 6 3 3 2 3 4 3 4 3 4 4 5 6 6 2 1 1 5 4 2 2 3 2 2 3 7 0 9 9 13 10 12 14
3 5 3 2 2 2 3 1 2 6 3 7 4 6 5 1 2 4 3 2 1 4 3 5 1 1 2 3 2 4 2 4 4 2 2 4 5 5 5 7 6 8 11 10 8
3 4 4 2 1 4 3 2 5 6 4 8 4 5 4 3 4 1 4 5 1 5 5 6 2 2 1 4 2 4 5 3 3 3 5 2 3 9 4 4 3 7 8 7 7
3 3 3 2 1 2 1 5 8 1 4 3 4 5 3 3 2 2 2 4 1 3 2 2 6 3 2 2 1 2 5 4 4 3 4 1 5 7 4 2 4 6 8 8 7
4 3 1 2 2 1 4 5 4 4 3 5 7 3 4 3 3 3 1 1 1 1 1 1 5 2 2 2 4 1 3 3 4 2 1 4 7 10 5 5 1 4 2 3 4
4 2 1 3 1 1 4 4 4 4 1 0 1 2 3 5 6 5 1 2 2 1 2 2 4 1 2 0 1 4 2 1 2 2 4 5 5 7 6 7 2 0 4 4 4
1 2 1 1 0 4 3 5 4 4 3 4 2 3 4 3 1 3 4 2 2 2 1 1 2 5 3 4 3 2 1 1 1 4 3 2 6 6 5 4 7 6 3 4 6
2 1 0 0 2 1 2 4 2 3 2 3 2 3 3 3 3 2 3 4 3 1 1 1 3 4 9 1 2 2 3 5 3 3 2 2 7 1 4 7 6 7 6 5 6
1 2 1 1 1 2 3 2 3 4 4 5 4 6 1 3 3 5 3 2 3 2 2 3 2 4 7 4 2 2 4 3 2 3 5 4 6 1 4 4 1 6 6 6 6
2 2 3 3 0 2 2 3 3 3 3 3 3 1 1 3 5 4 3 1 3 2 3 1 3 6 5 6 3 4 4 4 4 2 4 7 8 9 6 5 5 4 4 6 6
2 3 2 3 3 3 2 2 3 3 3 4 2 6 6 3 3 4 4 4 2 2 2 2 4 4 7 10 5 9 11 8 8 7 7 10 9 2 7 7 7 6 6 6 6
2 1 2 2 1 4 3 4 6 3 7 4 5 2 7 6 8 6 4 3 6 2 3 1 4 2 6 6 5 7 10 9 8 6 9 8 21 9 8 3 5 11 11 9 7
1 0 3 3 1 4 5 6 6 4 6 5 8 4 5 12 9 8 6 5 4 4 5 5 3 1 5 5 8 7 6 5 5 6 6 8 11 4 5 7 7 8 11 11 10
Wind_Direction
321 320 322 331 343 352 356 358 358 358 0 356 352 351 354 352 334 314 284 304 311 322 321 323 328 2 267 311 298 173 117 192 185 165 213 269 149 57 83 121 62 37 154 151 153
318 318 319 325 337 346 351 352 354 357 3 3 357 355 349 351 336 322 339 327 320 311 316 337 338 348 12 269 294 178 177 200 199 170 208 355 211 154 123 138 63 62 80 131 145
308 314 320 321 334 343 349 349 351 356 4 6 4 360 342 343 13 332 350 329 318 313 301 306 307 262 258 240 234 200 224 225 356 204 146 295 78 329 135 226 203 167 147 145 150
299 307 315 318 330 341 348 351 355 358 5 9 7 352 334 334 97 336 338 330 317 311 304 6 356 353 213 219 275 286 268 288 320 84 150 240 324 198 150 257 188 158 159 151 160
303 295 308 322 327 336 348 354 1 1 5 10 2 351 6 6 321 336 346 347 356 30 31 25 37 1 337 292 312 182 286 324 323 133 203 302 246 175 215 351 120 136 155 159 163
311 305 320 326 326 331 344 350 353 0 9 14 4 358 13 30 334 336 339 355 3 37 0 28 335 252 265 284 308 304 262 288 308 358 226 188 255 190 92 119 127 153 159 167 171
325 329 325 328 327 329 333 339 339 344 355 354 355 359 342 252 339 351 357 345 322 2 343 333 332 348 328 301 333 284 267 351 267 282 280 186 304 253 165 137 142 159 162 169 180
16 349 330 325 322 324 324 320 321 320 329 336 342 355 280 336 331 341 352 358 345 319 303 304 326 258 205 308 3 188 46 138 278 166 291 167 212 174 159 146 157 175 176 171 184
20 357 334 319 320 324 325 317 311 305 310 315 347 8 324 333 349 346 350 347 326 311 296 303 20 61 15 35 27 16 194 214 302 209 72 158 237 235 167 150 176 188 190 185 184
5 349 334 323 324 334 336 319 316 330 345 340 324 1 329 302 322 335 347 344 341 329 7 43 40 59 33 56 183 40 65 249 229 225 195 141 268 229 184 189 195 195 198 200 192
2 1 4 36 0 355 357 17 15 355 27 155 269 261 280 318 324 333 342 330 9 45 22 355 56 192 240 222 170 177 198 331 277 245 151 217 242 234 206 166 204 211 205 210 207
13 16 40 51 38 20 28 72 117 207 323 298 251 264 272 311 331 326 351 40 37 357 345 11 347 239 216 208 227 259 310 289 285 266 168 168 256 282 182 211 209 225 217 219 184
23 37 45 44 73 56 68 70 40 46 61 302 261 274 277 355 309 293 16 328 17 4 8 171 273 323 154 333 39 209 184 237 216 348 253 119 294 249 227 212 224 223 226 205 202
29 41 36 331 85 75 76 28 2 50 56 305 347 315 3 318 308 285 20 48 357 338 347 284 328 15 18 338 55 289 205 320 286 133 213 154 255 275 214 220 216 236 208 203 197
29 26 16 30 97 85 1 8 38 91 48 299 301 300 326 69 303 343 347 25 322 305 60 269 347 3 357 276 352 238 13 327 319 163 92 325 83 270 144 219 226 237 237 218 210
10 11 3 18 49 26 350 53 109 45 296 329 308 344 5 338 275 310 9 37 238 322 330 254 316 187 282 300 222 305 329 46 62 71 18 224 143 279 216 214 223 229 237 224 212
324 350 7 31 25 347 354 61 36 84 2 316 324 353 341 284 306 17 338 328 41 17 357 328 290 312 53 328 349 69 53 353 360 6 219 200 73 242 250 233 236 272 282 255 192
287 310 341 20 8 359 71 50 62 261 274 329 326 315 298 327 267 310 346 331 32 94 345 25 332 193 189 178 278 270 153 157 210 211 265 77 238 247 222 259 279 263 266 241 187
286 286 268 334 343 53 76 49 203 209 264 319 324 342 320 343 325 18 241 240 273 207 157 306 278 274 222 188 132 33 220 170 112 6 20 242 291 302 205 240 302 357 64 87 101
306 284 231 341 355 84 77 210 208 199 195 96 332 29 315 314 360 359 311 219 272 185 156 262 305 253 285 66 266 154 290 31 6 216 259 284 275 240 269 254 209 15 102 100 101
8 3 220 341 122 51 137 223 230 222 158 170 253 276 265 267 261 296 291 278 181 292 298 243 140 287 351 202 202 140 200 306 142 153 199 286 268 217 255 264 217 216 180 136 119
77 336 326 9 32 67 160 198 191 210 166 233 219 230 229 297 270 264 274 227 177 202 2 284 170 269 233 285 246 174 262 152 131 238 227 175 273 248 286 297 210 190 179 147 135
73 259 2 25 203 263 245 244 220 195 214 179 234 209 190 249 282 222 244 171 167 184 230 166 280 323 338 11 15 241 226 225 72 115 214 172 262 337 334 360 228 180 182 168 147
83 332 322 58 106 173 213 237 243 200 256 198 226 171 219 257 214 284 279 224 169 162 151 163 180 200 220 235 184 254 221 196 176 158 212 218 277 282 302 250 215 207 177 165 157
60 241 200 272 273 188 192 261 212 240 212 196 256 222 183 256 267 231 238 295 156 137 125 166 257 191 246 255 243 247 249 219 195 217 216 269 233 240 272 267 215 186 167 163 167
161 138 16 270 285 165 182 238 221 230 161 224 213 211 195 213 208 259 224 196 244 153 171 150 271 309 287 272 230 264 246 231 230 244 254 268 274 204 228 165 176 186 177 181 181
353 56 111 271 240 138 219 216 226 186 232 185 197 173 209 235 234 242 219 230 228 195 203 176 185 346 265 330 315 291 230 195 207 208 192 215 254 190 239 246 234 198 188 181 166